Date String (YYYY-MM-DD hh:mm:ss) UTC,Instrument flags,absolute air pressure of the measurement (hPa),sample flow rate (lpm),inlet stack bypass flow (lpm),air temperature of the measurement (°C),ambient temperature measured by the external sensor (°C),aerosol sample conditioner tube jacket temperature (°C),OPC LED temperature (°C),internal box temperature (°C),relative humidity of the measurement (%),span deviation,mass concentration of particles derived from Lorenz-Mie calculation of OPC scattering (μg/m³),mass concentration of particles derived from Lorenz-Mie calculation of OPC scattering (μg/m³),mass concentration of particles derived from Lorenz-Mie calculation of OPC scattering (μg/m³)
DateTimeUTC,F1_M11,P_M11,Q1_M11,Q2_M11,T1_M11,T2_M11,T3_M11,T4_M11,T5_M11,U1_M11,ZSPAN_M11,X2_M11,X0_M11,X1_M11
2024-05-15 04:00:00,SystemResetWarning,0826.6,5.01,000.00,024.2,022.0,000.0,032.9,025.3,021.6,0000.0,0003.11,0007.45,0001.90
2024-05-15 04:01:00,SystemResetWarning,0826.6,4.98,000.00,024.2,022.4,000.0,032.8,025.5,021.6,0000.0,0003.09,0007.40,0001.91
2024-05-15 04:02:00,SystemResetWarning,0826.6,5.00,000.00,024.2,022.7,000.0,032.7,025.7,021.6,0000.0,0003.05,0007.43,0001.90
2024-05-15 04:03:00,SystemResetWarning,0826.6,5.01,000.00,024.3,023.0,000.0,032.7,025.9,021.5,0000.0,0002.96,0007.56,0001.88
2024-05-15 04:04:00,SystemResetWarning,0826.7,5.00,000.00,024.3,023.2,000.0,032.7,026.0,021.4,0000.0,0002.97,0007.54,0001.86
2024-05-15 04:05:00,SystemResetWarning,0826.7,4.99,000.00,024.4,023.4,000.0,032.7,026.1,021.2,0000.0,0003.06,0007.90,0001.84
2024-05-15 04:06:00,SystemResetWarning,0826.7,5.00,000.00,024.4,023.6,000.0,032.7,026.2,021.3,0000.0,0003.01,0008.10,0001.81
2024-05-15 04:07:00,SystemResetWarning,0826.7,5.00,000.00,024.5,023.7,000.0,032.7,026.3,021.6,0000.0,0002.96,0008.70,0001.78
2024-05-15 04:08:00,SystemResetWarning,0826.8,5.00,000.00,024.5,023.9,000.0,032.7,026.3,021.6,0000.0,0002.98,0008.95,0001.76
2024-05-15 04:09:00,SystemResetWarning,0826.8,5.00,000.00,024.6,024.0,000.0,032.7,026.4,021.9,0000.0,0002.93,0009.00,0001.73
2024-05-15 04:10:00,SystemResetWarning,0826.8,5.01,000.00,024.6,024.1,000.0,032.7,026.4,022.7,0000.0,0002.85,0008.69,0001.69
2024-05-15 04:11:00,SystemResetWarning,0826.8,5.00,000.00,024.7,024.2,000.0,032.7,026.5,022.5,0000.0,0002.81,0008.76,0001.67
2024-05-15 04:12:00,SystemResetWarning,0826.9,5.00,000.00,024.7,024.2,000.0,032.8,026.6,022.7,0000.0,0002.83,0008.92,0001.67
2024-05-15 04:13:00,SystemResetWarning,0827.0,5.01,000.00,024.8,024.3,000.0,032.8,026.6,023.2,0000.0,0002.90,0008.99,0001.68
2024-05-15 04:14:00,SystemResetWarning,0827.0,4.99,000.00,024.8,024.4,000.0,032.8,026.7,023.9,0000.0,0002.94,0009.04,0001.69
2024-05-15 04:15:00,SystemResetWarning,0827.0,5.00,000.00,024.9,024.4,000.0,032.9,026.7,025.1,0000.0,0002.94,0009.34,0001.73
2024-05-15 04:16:00,SystemResetWarning,0827.1,4.99,000.00,024.9,024.5,000.0,032.9,026.8,025.3,0000.0,0002.91,0008.71,0001.76
2024-05-15 04:17:00,SystemResetWarning,0827.1,5.00,000.00,025.0,024.5,000.0,032.9,026.8,025.6,0000.0,0002.92,0008.28,0001.81
2024-05-15 04:18:00,SystemResetWarning,0827.1,5.00,000.00,025.0,024.6,000.0,033.0,026.9,026.0,0000.0,0002.93,0007.74,0001.85
2024-05-15 04:19:00,SystemResetWarning,0827.2,5.00,000.00,025.1,024.6,000.0,033.0,026.9,026.4,0000.0,0002.96,0008.21,0001.91
2024-05-15 04:20:00,SystemResetWarning,0827.2,5.00,000.00,025.1,024.7,000.0,033.1,026.9,026.3,0000.0,0002.94,0008.48,0001.97
2024-05-15 04:21:00,SystemResetWarning,0827.2,5.00,000.00,025.1,024.7,000.0,033.1,027.0,026.1,0000.0,0003.06,0008.69,0002.04
2024-05-15 04:22:00,SystemResetWarning,0827.2,5.00,000.00,025.2,024.7,000.0,033.1,027.0,026.2,0000.0,0003.08,0008.43,0002.10
2024-05-15 04:23:00,SystemResetWarning,0827.2,4.99,000.00,025.1,023.8,000.0,033.2,026.5,026.4,0000.0,0003.09,0008.36,0002.14
2024-05-15 04:24:00,SystemResetWarning,0827.2,5.00,000.00,024.7,021.9,000.0,033.3,025.5,027.1,0000.0,0003.06,0008.90,0002.18
2024-05-15 04:25:00,SystemResetWarning,0827.2,5.01,000.00,024.4,021.7,000.0,033.2,025.2,027.7,0000.0,0003.05,0009.11,0002.23
2024-05-15 04:26:00,SystemResetWarning,0827.2,4.99,000.00,024.3,022.0,000.0,033.1,025.4,027.9,0000.0,0003.09,0008.92,0002.27
2024-05-15 04:27:00,SystemResetWarning,0827.2,4.99,000.00,024.3,022.4,000.0,033.0,025.6,028.1,0000.0,0003.10,0008.90,0002.30
2024-05-15 04:28:00,SystemResetWarning,0827.2,5.00,000.00,024.3,022.7,000.0,032.9,025.8,028.1,0000.0,0003.11,0008.94,0002.32
2024-05-15 04:29:00,SystemResetWarning,0827.2,5.02,000.00,024.4,023.0,000.0,032.8,026.0,028.1,0000.0,0003.11,0009.05,0002.34
2024-05-15 04:30:00,SystemResetWarning,0827.3,5.00,000.00,024.4,023.2,000.0,032.8,026.1,028.1,0000.0,0003.12,0008.42,0002.35
2024-05-15 04:31:00,SystemResetWarning,0827.3,4.99,000.00,024.5,023.4,000.0,032.8,026.2,028.1,0000.0,0003.14,0007.93,0002.37
2024-05-15 04:32:00,SystemResetWarning,0827.4,4.99,000.00,024.5,023.6,000.0,032.8,026.3,028.1,0000.0,0003.13,0007.55,0002.39
2024-05-15 04:33:00,SystemResetWarning,0827.3,5.00,000.00,024.5,023.8,000.0,032.8,026.3,028.2,0000.0,0003.12,0007.57,0002.39
2024-05-15 04:34:00,SystemResetWarning,0827.4,5.00,000.00,024.6,023.9,000.0,032.8,026.4,028.2,0000.0,0003.12,0007.51,0002.39
2024-05-15 04:35:00,SystemResetWarning,0827.4,5.01,000.00,024.6,024.0,000.0,032.8,026.5,028.2,0000.0,0003.11,0006.61,0002.39
2024-05-15 04:36:00,SystemResetWarning,0827.4,4.99,000.00,024.7,024.1,000.0,032.8,026.5,028.1,0000.0,0003.14,0006.70,0002.38
2024-05-15 04:37:00,SystemResetWarning,0827.4,5.00,000.00,024.7,024.2,000.0,032.9,026.6,028.0,0000.0,0003.12,0006.28,0002.38
2024-05-15 04:38:00,SystemResetWarning,0827.5,5.00,000.00,024.8,024.3,000.0,032.9,026.6,028.0,0000.0,0003.10,0006.15,0002.39
2024-05-15 04:39:00,SystemResetWarning,0827.5,5.01,000.00,024.8,024.3,000.0,032.9,026.7,028.0,0000.0,0003.11,0006.58,0002.40
2024-05-15 04:40:00,SystemResetWarning,0827.8,5.01,000.00,024.9,024.4,000.0,032.9,026.7,028.0,0000.0,0003.13,0007.37,0002.42
2024-05-15 04:41:00,SystemResetWarning,0827.5,4.99,000.00,024.9,024.4,000.0,033.0,026.8,027.9,0000.0,0003.14,0007.91,0002.43
2024-05-15 04:42:00,SystemResetWarning,0827.5,4.99,000.00,025.0,024.5,000.0,033.0,026.8,027.9,0000.0,0003.15,0008.67,0002.44
2024-05-15 04:43:00,SystemResetWarning,0827.5,5.00,000.00,025.0,024.5,000.0,033.0,026.8,027.9,0000.0,0003.13,0009.22,0002.43
2024-05-15 04:44:00,SystemResetWarning,0827.5,5.00,000.00,025.0,024.6,000.0,033.1,026.9,027.9,0000.0,0003.14,0009.24,0002.44
2024-05-15 04:45:00,SystemResetWarning,0827.6,5.00,000.00,025.1,024.6,000.0,033.1,026.9,027.9,0000.0,0003.16,0009.24,0002.45
2024-05-15 04:46:00,SystemResetWarning,0827.6,5.00,000.00,025.1,024.7,000.0,033.1,027.0,027.8,0000.0,0003.20,0009.35,0002.46
2024-05-15 04:47:00,SystemResetWarning,0827.5,5.00,000.00,025.2,024.7,000.0,033.2,027.0,027.7,0000.0,0003.21,0009.26,0002.48
2024-05-15 04:48:00,SystemResetWarning,0827.6,5.00,000.00,025.2,024.7,000.0,033.2,027.1,027.6,0000.0,0003.21,0008.90,0002.48
2024-05-15 04:49:00,SystemResetWarning,0827.6,5.00,000.00,025.2,024.8,000.0,033.2,027.1,027.5,0000.0,0003.23,0009.18,0002.49
2024-05-15 04:50:00,SystemResetWarning,0827.6,5.00,000.00,025.3,024.8,000.0,033.3,027.1,027.5,0000.0,0003.24,0009.80,0002.49
2024-05-15 04:51:00,SystemResetWarning,0827.6,5.00,000.00,025.3,024.8,000.0,033.3,027.1,027.3,0000.0,0003.23,0009.09,0002.48
2024-05-15 04:52:00,SystemResetWarning,0827.7,4.99,000.00,025.3,024.9,000.0,033.3,027.1,027.2,0000.0,0003.24,0008.84,0002.49
2024-05-15 04:53:00,SystemResetWarning,0827.6,5.01,000.00,025.4,024.9,000.0,033.4,027.2,027.0,0000.0,0003.25,0008.95,0002.49
2024-05-15 04:54:00,SystemResetWarning,0827.6,5.00,000.00,025.4,024.9,000.0,033.4,027.2,026.9,0000.0,0003.27,0008.36,0002.51
2024-05-15 04:55:00,SystemResetWarning,0827.7,5.00,000.00,025.4,024.9,000.0,033.4,027.3,026.8,0000.0,0003.29,0008.88,0002.54
2024-05-15 04:56:00,SystemResetWarning,0827.6,5.00,000.00,025.5,025.0,000.0,033.5,027.3,026.8,0000.0,0003.30,0009.02,0002.58
2024-05-15 04:57:00,SystemResetWarning,0827.7,5.00,000.00,025.5,025.0,000.0,033.5,027.3,026.8,0000.0,0003.27,0008.92,0002.60
2024-05-15 04:58:00,SystemResetWarning,0827.7,4.99,000.00,025.5,025.0,000.0,033.5,027.3,026.8,0000.0,0003.27,0008.91,0002.61
2024-05-15 04:59:00,SystemResetWarning,0827.7,4.99,000.00,025.5,025.0,000.0,033.6,027.4,026.7,0000.0,0003.29,0009.13,0002.64
